Regional Weather Roundup
Issued by NWS

Home | Current Version | Previous Version | Graphics & Text | Print | Product List | Glossary Off
Versions: 1 2 3 4 5 6 7 8 9 10 11 12 13 14 15 16 17 18 19 20 21 22 23 24 25 26 27 28 29 30 31 32 33 34 35 36 37 38 39 40 41 42 43 44 45 46 47 48 49 50

000
ASUS43 KMKX 261300
RWRWI

WISCONSIN REGIONAL WEATHER ROUNDUP
NATIONAL WEATHER SERVICE MILWAUKEE/SULLIVAN WI
800 AM CDT WED APR 26 2017

NOTE: "FAIR" INDICATES FEW OR NO CLOUDS BELOW 12,000 FEET WITH NO
SIGNIFICANT WEATHER AND/OR OBSTRUCTIONS TO VISIBILITY.

WIZ001-002-006>008-014>016-023>028-261400-
NORTHWEST WISCONSIN

CITY           SKY/WX    TMP DP  RH WIND       PRES   REMARKS
SUPERIOR ARPT  MIX PCPN  32  31  96 NE16G25   29.63F WCI  21
ASHLAND        FRZ RAIN  32  30  92 NE22G33   29.61F FOG     WCI  19
HAYWARD        FRZ RAIN  33  32  96 NE15      29.51F FOG     WCI  23
SIREN          MIX PCPN  33  32  96 NE15      29.53S WCI  23
CUMBERLAND     CLOUDY    34  32  93 N13G18    29.48F WCI  25
RICE LAKE      CLOUDY    36  34  93 N16G23    29.48F WCI  26
CHETEK         CLOUDY    38  37  95 N7        29.46S WCI  33
LADYSMITH      LGT RAIN  37  36  95 N13       29.48S WCI  29
EAU CLAIRE     NOT AVBL
MENOMONIE      DRIZZLE   39  39 100 N14       29.44F WCI  30
NEW RICHMOND   LGT RAIN  35  35  97 N13G18    29.48S WCI  27
OSCEOLA        RAIN      35  35 100 N8        29.53S WCI  29
$$

WIZ003>005-009-010-017-018-261400-
NORTH CENTRAL WISCONSIN

CITY           SKY/WX    TMP DP  RH WIND       PRES   REMARKS
MANITOWISH WTR LGT RAIN  35  35 100 NE10      29.49F WCI  27
ARBOR VITAE    LGT RAIN  39  38  94 NE7       29.46F WCI  34
WOODRUFF       LGT RAIN  39  38  94 NE7       29.46F WCI  34
RHINELANDER    CLOUDY    48  47  96 NE6       29.45F
EAGLE RIVER    LGT RAIN  41  41 100 NE9       29.47F
LAND O LAKES   RAIN      37  37  99 NE8       29.51F WCI  31
PHILLIPS       DRIZZLE   36  36 100 N10       29.46S WCI  28
TOMAHAWK       CLOUDY    45  44  97 CALM      29.46R FOG
MEDFORD        CLOUDY    47  47  98 NE8       29.41S FOG
MERRILL        LGT RAIN  53  53 100 E3        29.44S
$$

WIZ029-030-035-036-043>047-261400-
CENTRAL WISCONSIN

CITY           SKY/WX    TMP DP  RH WIND       PRES   REMARKS
WAUSAU         RAIN      52  52 100 E8        29.40F FOG
MOSINEE        NOT AVBL
MARSHFIELD     LGT RAIN  55  53  93 E9        29.37F FOG
STEVENS POINT  CLOUDY    53  53 100 NE6       29.41F FOG
WAUPACA        CLOUDY    58  56  92 NE5       29.41F
WAUTOMA        LGT RAIN  57  56  96 MISG        N/A
WISC RAPIDS    CLOUDY    56  56 100 SE5       29.39F FOG
CAMP DOUGLAS   NOT AVBL
$$

WIZ011>013-019>022-031-037>040-048>050-261400-
NORTHEAST WISCONSIN

CITY           SKY/WX    TMP DP  RH WIND       PRES   REMARKS
ANTIGO         LGT RAIN  49  49 100 E8        29.46R
SHAWANO        CLOUDY    53  50  92 NE8       29.44F
OCONTO         CLOUDY    50  48  93 E6        29.46S
STURGEON BAY   MOSUNNY   59  53  80 S12       29.47F
GREEN BAY      MOSUNNY   59  55  87 SE8       29.42F
MANITOWOC      NOT AVBL
APPLETON       PTSUNNY   59  52  77 SE8       29.40F
CLINTONVILLE   CLOUDY    52  52 100 NE7       29.42F
OSHKOSH        CLOUDY    63  54  72 SE12      29.40F
$$

WIZ032>034-041-042-053>061-261400-
SOUTHWEST WISCONSIN

CITY           SKY/WX    TMP DP  RH WIND       PRES   REMARKS
LA CROSSE      CLOUDY    57  55  93 NW6       29.36S FOG
SPARTA         CLOUDY    53  53 100 CALM      29.37S
VIROQUA        CLOUDY    56  55  96 S8        29.37S
BOSCOBEL       CLOUDY    60  57  89 CALM      29.37S
PRAIRIE DU CHI CLOUDY    57  56  97 W3        29.35F
PLATTEVILLE    PTSUNNY   60  59  97 SW7       29.39F
$$

WIZ056-057-062-063-064-067-068-261400-
SOUTH CENTRAL WISCONSIN

CITY           SKY/WX    TMP DP  RH WIND       PRES   REMARKS
REEDSBURG      CLOUDY    61  55  78 SE3       29.37R
BARABOO/DELLS  CLOUDY    61  52  73 S12       29.38R
LONE ROCK      NOT AVBL
MINERAL POINT  CLOUDY    61  57  88 S6        29.39R
MADISON        TSTM      61  55  81 S7        29.39S
MIDDLETON      CLOUDY    61  56  83 S5        29.40R
WATERTOWN      CLOUDY    61  56  82 SE9       29.41S
MONROE         CLOUDY    61  52  72 S9        29.40S
JANESVILLE     CLOUDY    64  54  68 SE13G18   29.40F
$$

WIZ051-052-058>065-066-070>072-261400-
SOUTHEAST WISCONSIN

CITY           SKY/WX    TMP DP  RH WIND       PRES   REMARKS
MILWAUKEE      PTSUNNY   64  55  72 S13       29.46S
WAUKESHA       NOT AVBL
MILWAUKEE/TIMM SUNNY     64  52  63 S13G18    29.45S
RACINE         SUNNY     59  51  75 S17G24    29.48R
KENOSHA        CLOUDY    64  55  72 S12       29.47R
FOND DU LAC    CLOUDY    63  53  70 SE14      29.41F
SHEBOYGAN      MOSUNNY   55  51  86 S10       29.46S
WEST BEND      CLOUDY    61  54  77 S9G17     29.44S
JUNEAU         MOSUNNY   61  54  76 SE10      29.42S
$$

LSZ147-162-261400-
LAKE SUPERIOR

STATION/POSITION TIME  TEMP    WIND        PRES    WAVE
                       AIR SEA DIR/SP/G            HT/PER
                 (UTC) (F)     (DEG/KT/KT) (MB)    (FT/S)
DEVILS ISLAND    1200   32      40/ 33/ 36 1004.8F
PORT WING        1240   33      40/ 37/ 47 1003.0F
SAXON HARBOR     1230   34      40/ 25/ 32 1002.0F
$$

LMZ867-665-643>646-261400-
LAKE MICHIGAN

STATION/POSITION TIME  TEMP    WIND        PRES    WAVE
                       AIR SEA DIR/SP/G            HT/PER
                 (UTC) (F)     (DEG/KT/KT) (MB)    (FT/S)
CHAMBERS ISLAND  1240   41      10/  6/  7  998.6F
N MID LAKE BUOY  1150   42 37  110/ 12/ 14 1000.6F   2/ 3
NORTHPORT PIER   1240   45     120/  3/  5  999.0F
SISTER BAY       1121   49     110/  7/  9   N/A
KEWAUNEE LAKESHO 1230   51     180/ 13/ 16  998.1R
SHEBOYGAN LAKESH 1200   47     170/ 11/ 13  997.8F
PORT WASHINGTON  1240   50     170/  5/  6  999.0S
MILWAUKEE LAKESH 1230   49     150/ 14/ 16   N/A
S MID LAKE BUOY  1150   48 41  120/ 12/ 14  998.9F   1/ 3
KENOSHA   LAKESH 1200   51     180/ 12/ 16  998.0
$$

TC  - TEMPERATURE IN CELSIUS
VSB - VISIBILITY IN STATUTE MILES
WCI - WIND CHILL INDEX
HX  - HEAT INDEX





USA.gov is the U.S. government's official web portal to all federal, state and local government web resources and services.